Weather History for Port Hedland, WE

Change the Weather History Date:

Sunday, October 27, 2013

  Actual Average Record
Temperature  
Mean Temperature 82 °F -  
Max Temperature 93 °F 97 °F 113 °F (2002)
Min Temperature 71 °F 70 °F 60 °F (2001)
Cooling Degree Days 17    
Growing Degree Days 32 (Base 50)    
Moisture  
Dew Point 62 °F    
Average Humidity 54    
Maximum Humidity 88    
Minimum Humidity 19    
Precipitation  
Precipitation 0.00 in 0.00 in - ()
Sea Level Pressure  
Sea Level Pressure 29.96 in    
Wind  
Wind Speed 9 mph ()    
Max Wind Speed 18 mph    
Max Gust Speed -    
Visibility 7.6 miles    
Events Rain    
Averages and records for this station are not official NWS values.
T = Trace of Precipitation, MM = Missing Value Source: Averaged Metar Reports

Daily Weather History Graph

Daily Weather History Graph

Search for Another Location

Airport:

Trip Planner

Search our weather history database for the weather conditions in past years. The results will help you decide how hot, cold, wet, or windy it might be!

Date:

Astronomy

Oct. 27, 2013 Rise Set
Actual Time 5:26 AM AWST 6:12 PM AWST
Civil Twilight 5:03 AM AWST 6:35 PM AWST
Nautical Twilight 4:36 AM AWST 7:02 PM AWST
Astronomical Twilight 4:09 AM AWST 7:29 PM AWST
Moon 12:12 AM AWST (10/27) 11:48 AM AWST (10/27)
Length of Visible Light 13h 31m
Length of Day
12h 46m
Waning Gibbous, 48% of the Moon is Illuminated
Oct 27
Waning Gibbous
Nov 3
New
Nov 10
First Quarter
Nov 17
Full
Nov 26
Last Quarter

Hourly Weather History & Observations

Time (AWST) Temp. Heat Index Dew Point Humidity Pressure Visibility Wind Dir Wind Speed Gust Speed Precip Events Conditions
12:00 AM 73 °F - 68 °F 80% 29.97 in - SSW 8.1 mph - -  
12:00 AM 73.4 °F - 68.0 °F 83% 29.95 in 6.2 mi SSW 8.1 mph - N/A   Unknown
12:30 AM 73.4 °F - 69.8 °F 88% 29.95 in 6.2 mi SSW 4.6 mph - N/A Rain Light Rain Showers
1:00 AM 73.4 °F - 68.0 °F 83% 29.95 in 6.2 mi South 4.6 mph - N/A   Scattered Clouds
1:30 AM 73.4 °F - 68.0 °F 83% 29.95 in 6.2 mi SSW 8.1 mph - N/A   Unknown
2:00 AM 73 °F - 68 °F 80% 29.94 in - SE 8.1 mph - -  
2:00 AM 73.4 °F - 68.0 °F 83% 29.92 in 6.2 mi SE 8.1 mph - N/A Rain Light Rain
2:30 AM 73.4 °F - 68.0 °F 83% 29.92 in 6.2 mi SSE 4.6 mph - N/A   Scattered Clouds
3:00 AM 73 °F - 69 °F 83% 29.94 in - SSW 5.8 mph - -  
3:00 AM 73.4 °F - 69.8 °F 88% 29.92 in 6.2 mi SSW 5.8 mph - N/A   Scattered Clouds
3:30 AM 71.6 °F - 68.0 °F 88% 29.95 in 6.2 mi WSW 10.4 mph - N/A   Mostly Cloudy
4:00 AM 71.6 °F - 68.0 °F 88% 29.95 in 6.2 mi SW 11.5 mph - N/A   Scattered Clouds
4:30 AM 71.6 °F - 68.0 °F 88% 29.95 in 6.2 mi SW 12.7 mph - N/A   Scattered Clouds
5:00 AM 72 °F - 67 °F 79% 29.99 in - SSW 12.7 mph - -  
5:00 AM 71.6 °F - 66.2 °F 83% 29.98 in 6.2 mi SSW 12.7 mph - N/A   Scattered Clouds
5:30 AM 71.6 °F - 66.2 °F 83% 29.98 in 6.2 mi SSW 12.7 mph - N/A   Scattered Clouds
6:00 AM 73 °F - 67 °F 76% 30.00 in 19 mi South 11.5 mph - -   Partly Cloudy
6:00 AM 73.4 °F - 66.2 °F 78% 29.98 in - South 11.5 mph - N/A   Clear
6:30 AM 73.4 °F - 66.2 °F 78% 30.01 in - SW 15.0 mph - N/A   Clear
7:00 AM 75.2 °F - 66.2 °F 73% 30.01 in - SSW 15.0 mph - N/A   Clear
7:30 AM 78.8 °F - 66.2 °F 65% 30.01 in - SSW 16.1 mph - N/A   Clear
8:00 AM 81 °F - 63 °F 45% 30.03 in - South 15.0 mph - -  
8:00 AM 80.6 °F 81.8 °F 62.6 °F 54% 30.01 in - South 15.0 mph - N/A   Clear
8:30 AM 82.4 °F 83.4 °F 62.6 °F 51% 30.01 in - South 16.1 mph - N/A   Clear
9:00 AM 86 °F - 61 °F 33% 30.02 in 19 mi South 18.4 mph - -   Partly Cloudy
9:00 AM 86.0 °F 86.1 °F 60.8 °F 43% 30.01 in - South 18.4 mph - N/A   Clear
9:30 AM 87.8 °F 87.1 °F 59.0 °F 38% 30.01 in - South 16.1 mph - N/A   Clear
10:00 AM 89.6 °F 88.1 °F 57.2 °F 33% 30.01 in - South 15.0 mph - N/A   Clear
10:30 AM 89.6 °F 88.1 °F 57.2 °F 33% 30.01 in 6.2 mi SSE 11.5 mph - N/A   Unknown
11:00 AM 93 °F - 57 °F 20% 29.99 in - SSE 17.3 mph - -  
11:00 AM 93.2 °F 91.9 °F 57.2 °F 30% 29.98 in - SSE 17.3 mph - N/A   Clear
11:30 AM 89.6 °F 87.7 °F 55.4 °F 31% 29.98 in - SSE 15.0 mph - N/A   Clear
12:00 PM 89 °F - 59 °F 26% 29.98 in 19 mi South 13.8 mph - -   Mostly Cloudy
12:00 PM 89.6 °F 88.9 °F 59.0 °F 36% 29.98 in - South 13.8 mph - N/A   Clear
12:30 PM 89.6 °F 87.3 °F 53.6 °F 29% 29.95 in - South 17.3 mph - N/A   Clear
1:00 PM 91.4 °F 89.1 °F 53.6 °F 28% 29.95 in - South 9.2 mph - N/A   Clear
1:30 PM 89.6 °F 87.3 °F 53.6 °F 29% 29.95 in 6.2 mi South 9.2 mph - N/A Rain Light Rain Showers
2:00 PM 90 °F - 53 °F 19% 29.95 in - South 6.9 mph - -  
2:00 PM 89.6 °F 87.3 °F 53.6 °F 29% 29.95 in 6.2 mi South 6.9 mph - N/A   Scattered Clouds
2:30 PM 89.6 °F 87.3 °F 53.6 °F 29% 29.92 in 6.2 mi SE 4.6 mph - N/A Rain Light Rain Showers
3:00 PM 88 °F - 55 °F 22% 29.92 in 19 mi SE 10.4 mph - - Rain Light Rain Showers
3:00 PM 87.8 °F 86.1 °F 55.4 °F 33% 29.92 in - SE 10.4 mph - N/A   Clear
3:30 PM 87.8 °F 86.1 °F 55.4 °F 33% 29.92 in 6.2 mi SE 8.1 mph - N/A   Scattered Clouds
4:00 PM 86.0 °F 84.9 °F 57.2 °F 37% 29.92 in 6.2 mi ESE 11.5 mph - N/A   Scattered Clouds
4:30 PM 86.0 °F 84.9 °F 57.2 °F 37% 29.92 in 6.2 mi SE 6.9 mph - N/A   Unknown
5:00 PM 83 °F - 60 °F 36% 29.94 in - ESE 6.9 mph - -  
5:00 PM 84.2 °F 84.4 °F 60.8 °F 45% 29.92 in 6.2 mi ESE 6.9 mph - N/A Rain Light Rain Showers
5:30 PM 84.2 °F 83.5 °F 57.2 °F 40% 29.89 in 6.2 mi SE 9.2 mph - N/A   Unknown
6:00 PM 82 °F - 60 °F 37% 29.93 in - South 6.9 mph - -  
6:00 PM 82.4 °F 82.9 °F 60.8 °F 48% 29.92 in 6.2 mi South 6.9 mph - N/A Rain Light Rain Showers
6:30 PM 80.6 °F 82.7 °F 66.2 °F 61% 29.95 in 6.2 mi SW 5.8 mph - N/A Rain Light Rain Showers
7:00 PM 82.4 °F 82.5 °F 59.0 °F 45% 29.95 in 6.2 mi Calm Calm - N/A   Unknown
7:30 PM 80.6 °F 81.5 °F 60.8 °F 51% 29.95 in 6.2 mi Calm Calm - N/A   Scattered Clouds
8:00 PM 79 °F - 61 °F 44% 29.98 in - ENE 3.5 mph - -  
8:00 PM 78.8 °F - 60.8 °F 54% 29.98 in 6.2 mi ENE 3.5 mph - N/A   Unknown
8:30 PM 77.0 °F - 62.6 °F 61% 29.98 in 6.2 mi WSW 5.8 mph - N/A   Unknown
9:00 PM 81 °F - 59 °F 37% 29.98 in - SSE 8.1 mph - -  
9:00 PM 80.6 °F 81.1 °F 59.0 °F 48% 29.98 in 6.2 mi SSE 8.1 mph - N/A Rain Light Rain Showers
9:30 PM 80.6 °F 80.8 °F 57.2 °F 45% 29.98 in 6.2 mi WSW 13.8 mph - N/A   Unknown
10:00 PM 78.8 °F - 59.0 °F 51% 29.98 in 6.2 mi WSW 6.9 mph - N/A   Scattered Clouds
10:30 PM 78.8 °F - 59.0 °F 51% 29.98 in 6.2 mi West 8.1 mph - N/A Rain Light Rain Showers
11:00 PM 76 °F - 62 °F 52% 29.99 in - WNW 8.1 mph - -  
11:00 PM 77.0 °F - 62.6 °F 61% 29.98 in 6.2 mi WNW 8.1 mph - N/A Rain Light Rain Showers
11:30 PM 77.0 °F - 62.6 °F 61% 29.95 in 6.2 mi ESE 2.3 mph - N/A   Scattered Clouds